﻿_id,日時,平均風速(m/s),平均風向,最大瞬間風速(m/s),最大風速時風向,気温(℃),湿度(%),10分間移動積算雨量(mm),1時間移動積算雨量(mm),日雨量(mm),累計雨量(mm)
1,2020-03-09T00:00:00,2,北西,3.9,西北西,5.9,94,0,0,10.5,13
2,2020-03-09T00:01:00,2,西北西,3.9,西北西,6,94.2,0,0,0,13
3,2020-03-09T00:02:00,2,西北西,3.9,西北西,6.1,93.9,0,0,0,13
4,2020-03-09T00:03:00,2,西北西,3.9,西北西,6.3,94,0,0,0,13
5,2020-03-09T00:04:00,1.9,西北西,3.9,西北西,6.3,93.7,0,0,0,13
6,2020-03-09T00:05:00,1.8,西北西,3.9,西北西,6.3,92.6,0,0,0,13
7,2020-03-09T00:06:00,1.9,西北西,3.9,西北西,6.2,92,0,0,0,13
8,2020-03-09T00:07:00,1.8,西北西,3.9,西北西,6.1,91.3,0,0,0,13
9,2020-03-09T00:08:00,1.8,西北西,3.9,西北西,5.9,90.7,0,0,0,13
10,2020-03-09T00:09:00,1.7,西北西,3.5,西北西,5.8,90.4,0,0,0,13
11,2020-03-09T00:10:00,1.7,西北西,3.5,西北西,6,91.4,0,0,0,13
12,2020-03-09T00:11:00,1.7,西北西,3.5,西北西,6,91.9,0,0,0,13
13,2020-03-09T00:12:00,1.6,西北西,3.2,西北西,5.9,91.4,0,0,0,13
14,2020-03-09T00:13:00,1.6,西北西,3.2,西北西,6,91.5,0,0,0,13
15,2020-03-09T00:14:00,1.7,西北西,3.2,西北西,6,92,0,0,0,13
16,2020-03-09T00:15:00,1.6,西北西,3.2,西北西,5.8,91.6,0,0,0,13
17,2020-03-09T00:16:00,1.5,西北西,3.1,北西,5.8,91.2,0,0,0,13
18,2020-03-09T00:17:00,1.6,西北西,3.1,北西,5.8,91.7,0,0,0,13
19,2020-03-09T00:18:00,1.6,北西,3.1,北西,5.8,92,0,0,0,13
20,2020-03-09T00:19:00,1.6,北西,3.1,北西,5.8,92.3,0,0,0,13
21,2020-03-09T00:20:00,1.5,西北西,3.1,北西,5.8,92.4,0,0,0,13
22,2020-03-09T00:21:00,1.5,西北西,3.1,北西,5.9,92.6,0,0,0,13
23,2020-03-09T00:22:00,1.6,西北西,3.1,北西,5.9,92.8,0,0,0,13
24,2020-03-09T00:23:00,1.7,西北西,3.4,西北西,6,92.6,0,0,0,13
25,2020-03-09T00:24:00,1.7,西北西,3.4,西北西,6.2,93.1,0,0,0,13
26,2020-03-09T00:25:00,1.7,西北西,3.4,西北西,6.1,92.5,0,0,0,13
27,2020-03-09T00:26:00,1.8,西北西,3.4,西北西,6,91.5,0,0,0,13
28,2020-03-09T00:27:00,1.8,西北西,3.4,西北西,6,91.4,0,0,0,13
29,2020-03-09T00:28:00,1.8,西北西,3.4,西北西,6,91,0,0,0,13
30,2020-03-09T00:29:00,1.9,西北西,3.4,西北西,6,91.3,0,0,0,13
31,2020-03-09T00:30:00,2,西北西,3.4,西北西,5.9,91.4,0,0,0,13
32,2020-03-09T00:31:00,2.1,西北西,3.4,西北西,5.9,91.3,0,0,0,13
33,2020-03-09T00:32:00,2.1,西北西,3.4,西北西,6,91.9,0,0,0,13
34,2020-03-09T00:33:00,2,西北西,3.1,西,5.8,91.8,0,0,0,13
35,2020-03-09T00:34:00,1.9,西北西,3.1,西,5.8,91,0,0,0,13
36,2020-03-09T00:35:00,1.9,西北西,3.1,西,5.9,91.8,0,0,0,13
37,2020-03-09T00:36:00,1.8,西北西,3.1,西,5.9,92.4,0,0,0,13
38,2020-03-09T00:37:00,1.8,西北西,3.1,西,5.8,91.7,0,0,0,13
39,2020-03-09T00:38:00,1.8,西北西,3.1,西,5.5,90.7,0,0,0,13
40,2020-03-09T00:39:00,1.8,西北西,3.1,西,5.6,91,0,0,0,13
41,2020-03-09T00:40:00,1.7,西北西,3.1,西,5.8,92.3,0,0,0,13
42,2020-03-09T00:41:00,1.6,西北西,2.6,北西,5.7,92.4,0,0,0,13
43,2020-03-09T00:42:00,1.6,西北西,2.5,西北西,5.6,92,0,0,0,13
44,2020-03-09T00:43:00,1.6,西北西,3,西北西,5.7,92,0,0,0,13
45,2020-03-09T00:44:00,1.6,西北西,3,西北西,5.7,92.6,0,0,0,13
46,2020-03-09T00:45:00,1.6,西北西,3,西北西,5.8,92.8,0,0,0,13
47,2020-03-09T00:46:00,1.6,西北西,3,西北西,5.9,93.2,0,0,0,13
48,2020-03-09T00:47:00,1.6,西北西,3,西北西,6,93,0,0,0,13
49,2020-03-09T00:48:00,1.5,西北西,3,西北西,5.9,92.4,0,0,0,13
50,2020-03-09T00:49:00,1.6,西北西,3,西北西,6.1,92.6,0,0,0,13
51,2020-03-09T00:50:00,1.6,西北西,3,西北西,6.3,93.1,0,0,0,13
52,2020-03-09T00:51:00,1.7,西北西,3,西北西,6.3,92.4,0,0,0,13
53,2020-03-09T00:52:00,1.7,西北西,3,西北西,6.3,91.9,0,0,0,13
54,2020-03-09T00:53:00,1.6,北西,2.3,北西,6.1,90.9,0,0,0,13
55,2020-03-09T00:54:00,1.7,北西,2.3,北西,6.1,90.7,0,0,0,13
56,2020-03-09T00:55:00,1.7,北西,2.5,北北西,5.9,90.9,0,0,0,13
57,2020-03-09T00:56:00,1.7,北西,2.5,北北西,5.9,90.6,0,0,0,13
58,2020-03-09T00:57:00,1.7,北西,2.5,北北西,5.9,91,0,0,0,13
59,2020-03-09T00:58:00,1.6,北西,2.5,北北西,5.8,91.1,0,0,0,13
60,2020-03-09T00:59:00,1.6,北西,2.5,北北西,5.8,91.1,0,0,0,13
61,2020-03-09T01:00:00,1.6,北西,2.5,北北西,5.9,91.6,0,0,0,13
62,2020-03-09T01:01:00,1.6,北西,3,北西,6,92.5,0,0,0,13
63,2020-03-09T01:02:00,1.5,西北西,3,北西,5.9,92.3,0,0,0,13
64,2020-03-09T01:03:00,1.5,西北西,3,北西,5.6,91.2,0,0,0,13
65,2020-03-09T01:04:00,1.4,西北西,3,北西,5.4,90.3,0,0,0,13
66,2020-03-09T01:05:00,1.3,西北西,3,北西,5.5,90.9,0,0,0,13
67,2020-03-09T01:06:00,1.2,西北西,3,北西,5.5,91.8,0,0,0,13
68,2020-03-09T01:07:00,1.2,西北西,3,北西,5.4,91.8,0,0,0,13
69,2020-03-09T01:08:00,1.3,西北西,3,北西,5.5,92,0,0,0,13
70,2020-03-09T01:09:00,1.4,西北西,3,北西,5.9,93.8,0,0,0,13
71,2020-03-09T01:10:00,1.4,西北西,3,北西,6,94.7,0,0,0,13
72,2020-03-09T01:11:00,1.3,西北西,2.9,北西,5.8,93.8,0,0,0,13
73,2020-03-09T01:12:00,1.3,西北西,2.9,北西,5.6,92.4,0,0,0,13
74,2020-03-09T01:13:00,1.3,西北西,2.9,北西,5.6,92,0,0,0,13
75,2020-03-09T01:14:00,1.3,西北西,2.9,北西,5.5,91.7,0,0,0,13
76,2020-03-09T01:15:00,1.4,西,2.9,北西,5.6,92,0,0,0,13
77,2020-03-09T01:16:00,1.4,西北西,2.9,北西,5.7,92.6,0,0,0,13
78,2020-03-09T01:17:00,1.4,西北西,2.9,北西,5.8,93.2,0,0,0,13
79,2020-03-09T01:18:00,1.4,西北西,2.9,北西,5.7,92.8,0,0,0,13
80,2020-03-09T01:19:00,1.2,西北西,1.9,西,5.6,92.6,0,0,0,13
81,2020-03-09T01:20:00,1.2,西北西,1.9,西,5.7,92.8,0,0,0,13
82,2020-03-09T01:21:00,1.2,西北西,1.9,西,5.6,92.8,0,0,0,13
83,2020-03-09T01:22:00,1.2,西北西,1.8,西,5.6,92.6,0,0,0,13
84,2020-03-09T01:23:00,1.2,西北西,1.8,西,5.4,92.4,0,0,0,13
85,2020-03-09T01:24:00,1.2,西北西,1.8,西,5.4,92,0,0,0,13
86,2020-03-09T01:25:00,1.2,西北西,1.8,西,5.5,92.3,0,0,0,13
87,2020-03-09T01:26:00,1.2,西北西,1.8,西,5.6,93.6,0,0,0,13
88,2020-03-09T01:27:00,1.2,西北西,1.9,西北西,5.6,93.7,0,0,0,13
89,2020-03-09T01:28:00,1.3,西北西,2.3,西,5.4,93.1,0,0,0,13
90,2020-03-09T01:29:00,1.3,西,2.3,西,5.3,92.6,0,0,0,13
91,2020-03-09T01:30:00,1.4,西,2.3,西,5.1,92.3,0,0,0,13
92,2020-03-09T01:31:00,1.4,西,2.3,西,5.2,92.4,0,0,0,13
93,2020-03-09T01:32:00,1.5,西,2.7,西,5.1,92.8,0,0,0,13
94,2020-03-09T01:33:00,1.5,西,2.9,西,5.1,92.9,0,0,0,13
95,2020-03-09T01:34:00,1.7,西,2.9,西,5,93,0,0,0,13
96,2020-03-09T01:35:00,1.8,西,3.4,西,4.9,92.8,0,0,0,13
97,2020-03-09T01:36:00,1.9,西,3.4,西,5.1,93.5,0,0,0,13
98,2020-03-09T01:37:00,2,西,3.4,西,5,93.9,0,0,0,13
99,2020-03-09T01:38:00,2,西,3.4,西,5,93.7,0,0,0,13
100,2020-03-09T01:39:00,2.1,西,3.4,西,5,93.7,0,0,0,13
101,2020-03-09T01:40:00,2.1,西,3.4,西,5.2,94.6,0,0,0,13
102,2020-03-09T01:41:00,2.1,西,3.4,西,5.3,94.9,0,0,0,13
103,2020-03-09T01:42:00,2,西,3.4,西,5.1,94.7,0,0,0,13
104,2020-03-09T01:43:00,1.9,西,3.4,西,5.2,94.5,0,0,0,13
105,2020-03-09T01:44:00,1.9,西,3.4,西,5.2,94.5,0,0,0,13
106,2020-03-09T01:45:00,1.9,西,3.3,西北西,5.4,94.9,0,0,0,13
107,2020-03-09T01:46:00,1.8,西,3.3,西北西,5.5,95.1,0,0,0,13
108,2020-03-09T01:47:00,1.7,西北西,3.3,西北西,5.5,95.1,0,0,0,13
109,2020-03-09T01:48:00,1.6,西北西,3.3,西北西,5.4,95,0,0,0,13
110,2020-03-09T01:49:00,1.5,西北西,3.3,西北西,5,93.4,0,0,0,13
111,2020-03-09T01:50:00,1.4,北西,3.3,西北西,4.8,92.3,0,0,0,13
112,2020-03-09T01:51:00,1.3,北西,3.3,西北西,4.7,92,0,0,0,13
113,2020-03-09T01:52:00,1.2,北西,3.3,西北西,4.6,92.2,0,0,0,13
114,2020-03-09T01:53:00,1.2,北西,3.3,西北西,4.6,92.5,0,0,0,13
115,2020-03-09T01:54:00,1,北西,3.2,西北西,4.6,93.3,0,0,0,13
116,2020-03-09T01:55:00,0.8,北西,2.2,西北西,4.9,94.6,0,0,0,13
117,2020-03-09T01:56:00,0.7,北西,2.1,北,5,95.3,0,0,0,13
118,2020-03-09T01:57:00,0.7,北西,2.1,北,4.9,95.2,0,0,0,13
119,2020-03-09T01:58:00,0.8,西北西,2.1,北,4.8,94.8,0,0,0,13
120,2020-03-09T01:59:00,0.8,西北西,1.7,北西,4.8,94.9,0,0,0,13
121,2020-03-09T02:00:00,0.9,西北西,2.4,西北西,4.8,94.9,0,0,0,13
122,2020-03-09T02:01:00,1,西北西,2.4,西北西,4.8,95,0,0,0,13
123,2020-03-09T02:02:00,1.2,西北西,2.5,北西,5,95.1,0,0,0,13
124,2020-03-09T02:03:00,1.3,西北西,2.5,北西,5.3,95.8,0,0,0,13
125,2020-03-09T02:04:00,1.4,西北西,2.5,北西,5.2,95.8,0,0,0,13
126,2020-03-09T02:05:00,1.5,西北西,2.5,北西,5.1,95.4,0,0,0,13
127,2020-03-09T02:06:00,1.6,西北西,2.5,北西,4.9,95,0,0,0,13
128,2020-03-09T02:07:00,1.7,西北西,2.5,北西,4.8,94.1,0,0,0,13
129,2020-03-09T02:08:00,1.7,西北西,2.5,北西,4.8,94.5,0,0,0,13
130,2020-03-09T02:09:00,1.7,西北西,2.5,北西,4.6,93.7,0,0,0,13
131,2020-03-09T02:10:00,1.6,西北西,2.5,北西,4.7,93.8,0,0,0,13
132,2020-03-09T02:11:00,1.6,西北西,2.5,北西,4.6,94,0,0,0,13
133,2020-03-09T02:12:00,1.6,西北西,2.3,西,4.5,94,0,0,0,13
134,2020-03-09T02:13:00,1.6,西,2.3,西,4.5,93.9,0,0,0,13
135,2020-03-09T02:14:00,1.5,西,2.3,西,4.4,94,0,0,0,13
136,2020-03-09T02:15:00,1.4,西,2.3,西,4.4,94,0,0,0,13
137,2020-03-09T02:16:00,1.4,西,2.3,西,4.4,94.2,0,0,0,13
138,2020-03-09T02:17:00,1.3,西,1.8,西,4.4,94.5,0,0,0,13
139,2020-03-09T02:18:00,1.3,西,1.8,西,4.5,94.8,0,0,0,13
140,2020-03-09T02:19:00,1.3,西,1.8,西,4.3,94.8,0,0,0,13
141,2020-03-09T02:20:00,1.3,西,1.8,西,4.3,94.5,0,0,0,13
142,2020-03-09T02:21:00,1.2,西,1.8,西,4.3,94.7,0,0,0,13
143,2020-03-09T02:22:00,1.2,西北西,1.8,西北西,4.3,95.1,0,0,0,13
144,2020-03-09T02:23:00,1.2,西北西,1.8,西北西,4.4,95.2,0,0,0,13
145,2020-03-09T02:24:00,1.3,西北西,2,西北西,4.5,95.3,0,0,0,13
146,2020-03-09T02:25:00,1.3,西北西,2,西北西,4.5,95.4,0,0,0,13
147,2020-03-09T02:26:00,1.2,西北西,2,西北西,4.4,95.3,0,0,0,13
148,2020-03-09T02:27:00,1.2,西北西,2,西北西,4.4,95.3,0,0,0,13
149,2020-03-09T02:28:00,1.1,西北西,2,西北西,4.3,95.2,0,0,0,13
150,2020-03-09T02:29:00,1,西北西,2,西北西,4.2,95.1,0,0,0,13
151,2020-03-09T02:30:00,1,西北西,2,西北西,4.3,95,0,0,0,13
152,2020-03-09T02:31:00,0.9,西北西,2,西北西,4.3,95.3,0,0,0,13
153,2020-03-09T02:32:00,0.9,西北西,2,西北西,4.4,95.4,0,0,0,13
154,2020-03-09T02:33:00,0.9,西北西,2,西北西,4.4,95.6,0,0,0,13
155,2020-03-09T02:34:00,0.9,西北西,1.8,西北西,4.2,95.4,0,0,0,13
156,2020-03-09T02:35:00,0.9,西北西,1.8,西北西,4.4,95.5,0,0,0,13
157,2020-03-09T02:36:00,1,西北西,2,西,4.4,95.7,0,0,0,13
158,2020-03-09T02:37:00,1.2,西北西,2.7,西北西,4.2,95.5,0,0,0,13
159,2020-03-09T02:38:00,1.3,西北西,2.7,西北西,4.2,95.2,0,0,0,13
160,2020-03-09T02:39:00,1.5,西北西,2.7,西北西,3.9,95.1,0,0,0,13
161,2020-03-09T02:40:00,1.5,西北西,2.7,西北西,3.8,94.8,0,0,0,13
162,2020-03-09T02:41:00,1.6,西北西,3,西,3.8,94.9,0,0,0,13
163,2020-03-09T02:42:00,1.7,西北西,3,西,3.8,95.2,0,0,0,13
164,2020-03-09T02:43:00,1.8,西,3,西,3.9,95.3,0,0,0,13
165,2020-03-09T02:44:00,1.9,西,3.7,西,3.8,95.5,0,0,0,13
166,2020-03-09T02:45:00,2.1,西,3.7,西,3.9,95.5,0,0,0,13
167,2020-03-09T02:46:00,2.1,西,3.7,西,4,95.7,0,0,0,13
168,2020-03-09T02:47:00,2.2,西,3.7,西,4,95.8,0,0,0,13
169,2020-03-09T02:48:00,2.2,西,3.7,西,3.9,95.7,0,0,0,13
170,2020-03-09T02:49:00,2.3,西,3.8,北西,4,95.6,0,0,0,13
171,2020-03-09T02:50:00,2.4,西北西,3.8,北西,3.9,95.8,0,0,0,13
172,2020-03-09T02:51:00,2.4,西北西,3.8,北西,3.9,95.7,0,0,0,13
173,2020-03-09T02:52:00,2.3,西北西,3.8,北西,3.8,95.6,0,0,0,13
174,2020-03-09T02:53:00,2.2,西北西,3.8,北西,3.5,95.4,0,0,0,13
175,2020-03-09T02:54:00,2.1,北西,3.8,北西,3.4,95.1,0,0,0,13
176,2020-03-09T02:55:00,1.9,北西,3.8,北西,3.4,95.1,0,0,0,13
177,2020-03-09T02:56:00,1.8,北西,3.8,北西,3.4,95.3,0,0,0,13
178,2020-03-09T02:57:00,1.6,北西,3.8,北西,3.5,95.5,0,0,0,13
179,2020-03-09T02:58:00,1.5,北西,3.8,北西,4,95.9,0,0,0,13
180,2020-03-09T02:59:00,1.4,北西,2.4,西北西,4.1,96.5,0,0,0,13
181,2020-03-09T03:00:00,1.3,北西,2.2,北西,4.3,96.6,0,0,0,13
182,2020-03-09T03:01:00,1.2,北西,1.8,西北西,4.5,96.7,0,0,0,13
183,2020-03-09T03:02:00,1.2,北西,1.8,西北西,4.1,96.5,0,0,0,13
184,2020-03-09T03:03:00,1.2,西北西,1.9,西北西,4.2,96.1,0,0,0,13
185,2020-03-09T03:04:00,1.2,西北西,2.2,西北西,4.2,96.1,0,0,0,13
186,2020-03-09T03:05:00,1.3,西北西,2.2,西北西,4.1,96.1,0,0,0,13
187,2020-03-09T03:06:00,1.4,西北西,2.6,西北西,4.3,96.1,0,0,0,13
188,2020-03-09T03:07:00,1.5,西北西,3,西北西,4.4,96.3,0,0,0,13
189,2020-03-09T03:08:00,1.6,西北西,3,西北西,4.3,96.3,0,0,0,13
190,2020-03-09T03:09:00,1.7,西北西,3.1,西北西,4.2,96.1,0,0,0,13
191,2020-03-09T03:10:00,1.8,西北西,3.1,西北西,4.1,96,0,0,0,13
192,2020-03-09T03:11:00,1.9,西北西,3.1,西北西,4.2,96,0,0,0,13
193,2020-03-09T03:12:00,2,西北西,3.1,西北西,4.1,96,0,0,0,13
194,2020-03-09T03:13:00,2.1,西北西,3.1,西北西,4,95.9,0,0,0,13
195,2020-03-09T03:14:00,2,西北西,3.1,西北西,3.9,95.8,0,0,0,13
196,2020-03-09T03:15:00,2,西北西,3.1,西北西,3.8,95.7,0,0,0,13
197,2020-03-09T03:16:00,1.9,西北西,3.1,西北西,3.8,95.7,0,0,0,13
198,2020-03-09T03:17:00,1.8,西北西,3.1,西北西,3.9,95.9,0,0,0,13
199,2020-03-09T03:18:00,1.7,西北西,3.1,西北西,4,96,0,0,0,13
200,2020-03-09T03:19:00,1.7,西北西,3.1,西北西,4,96.1,0,0,0,13
201,2020-03-09T03:20:00,1.8,西北西,3.2,西北西,4.3,96.3,0,0,0,13
202,2020-03-09T03:21:00,1.8,西北西,3.3,北西,4.3,96.4,0,0,0,13
203,2020-03-09T03:22:00,1.8,西北西,3.3,北西,4.3,96.3,0,0,0,13
204,2020-03-09T03:23:00,1.8,西北西,3.3,北西,4.1,96.4,0,0,0,13
205,2020-03-09T03:24:00,1.8,西北西,3.3,北西,4.1,96,0,0,0,13
206,2020-03-09T03:25:00,1.8,西北西,3.3,北西,4.2,96.1,0,0,0,13
207,2020-03-09T03:26:00,1.9,北西,3.3,北西,4.4,96.3,0,0,0,13
208,2020-03-09T03:27:00,2,北西,3.3,北西,4.4,96.5,0,0,0,13
209,2020-03-09T03:28:00,2,北西,3.3,北西,4.3,96.3,0,0,0,13
210,2020-03-09T03:29:00,1.9,北西,3.3,北西,4.3,96.2,0,0,0,13
211,2020-03-09T03:30:00,1.8,北西,3.3,北西,4.2,96.1,0,0,0,13
212,2020-03-09T03:31:00,1.7,北西,3,北西,4.2,96,0,0,0,13
213,2020-03-09T03:32:00,1.6,西北西,3,北西,4.3,96.1,0,0,0,13
214,2020-03-09T03:33:00,1.6,西北西,3,北西,4.3,96.2,0,0,0,13
215,2020-03-09T03:34:00,1.6,西北西,3,北西,4.3,96.2,0,0,0,13
216,2020-03-09T03:35:00,1.7,西北西,3.1,西,4.3,96.2,0,0,0,13
217,2020-03-09T03:36:00,1.7,西北西,3.1,西,4.2,96,0,0,0,13
218,2020-03-09T03:37:00,1.7,西北西,3.1,西,4.2,95.9,0,0,0,13
219,2020-03-09T03:38:00,1.8,西北西,3.1,西,4.2,96,0,0,0,13
220,2020-03-09T03:39:00,1.9,西北西,3.2,西北西,4.4,96.1,0,0,0,13
221,2020-03-09T03:40:00,1.9,西北西,3.3,西,4.4,96.3,0,0,0,13
222,2020-03-09T03:41:00,2,西,3.3,西,4.5,96.4,0,0,0,13
223,2020-03-09T03:42:00,2.1,西,3.3,西,4.5,96.2,0,0,0,13
224,2020-03-09T03:43:00,2.1,西,3.3,西,4.4,96.1,0,0,0,13
225,2020-03-09T03:44:00,2.2,西,3.3,西,4.3,96,0,0,0,13
226,2020-03-09T03:45:00,2.1,西北西,3.3,西,4.3,96,0,0,0,13
227,2020-03-09T03:46:00,2.1,西北西,3.3,西,4.3,96,0,0,0,13
228,2020-03-09T03:47:00,2,西,3.3,西,4.3,95.9,0,0,0,13
229,2020-03-09T03:48:00,2,西,3.3,西,4.3,95.9,0,0,0,13
230,2020-03-09T03:49:00,2,西,3.3,西,4.3,95.9,0,0,0,13
231,2020-03-09T03:50:00,2,西,3.1,西北西,4.3,95.9,0,0,0,13
232,2020-03-09T03:51:00,2,西,3.1,西北西,4.2,95.9,0,0,0,13
233,2020-03-09T03:52:00,2,西,3.1,西北西,4.3,95.8,0,0,0,13
234,2020-03-09T03:53:00,1.9,西,3.1,西北西,4.2,95.8,0,0,0,13
235,2020-03-09T03:54:00,1.9,西,3.1,西北西,4.2,95.6,0,0,0,13
236,2020-03-09T03:55:00,2,西,3.1,西北西,4.1,95.6,0,0,0,13
237,2020-03-09T03:56:00,2,西,3.1,西北西,4,95.5,0,0,0,13
238,2020-03-09T03:57:00,2,西,3.1,西北西,3.9,95.3,0,0,0,13
239,2020-03-09T03:58:00,1.9,西,3.1,西北西,3.9,95.3,0,0,0,13
240,2020-03-09T03:59:00,1.8,西,3.1,西北西,3.9,95.3,0,0,0,13
241,2020-03-09T04:00:00,1.7,西,3,西北西,3.8,95.3,0,0,0,13
242,2020-03-09T04:01:00,1.6,西,3,西北西,3.7,95.2,0,0,0,13
243,2020-03-09T04:02:00,1.5,西北西,3,西北西,3.7,95.1,0,0,0,13
244,2020-03-09T04:03:00,1.5,西北西,3,西北西,3.7,95.2,0,0,0,13
245,2020-03-09T04:04:00,1.4,西北西,3,西北西,3.7,95.3,0,0,0,13
246,2020-03-09T04:05:00,1.3,西北西,2.6,西北西,3.7,95.4,0,0,0,13
247,2020-03-09T04:06:00,1.2,西北西,2,西,3.7,95.4,0,0,0,13
248,2020-03-09T04:07:00,1.1,西北西,1.9,北西,3.8,95.5,0,0,0,13
249,2020-03-09T04:08:00,1.1,西北西,1.9,北西,4.1,95.9,0,0,0,13
250,2020-03-09T04:09:00,1.1,西北西,2.4,西,4.1,96.1,0,0,0,13
251,2020-03-09T04:10:00,1.2,西北西,2.5,西,4,96,0,0,0,13
252,2020-03-09T04:11:00,1.3,西北西,2.8,西,3.9,95.8,0,0,0,13
253,2020-03-09T04:12:00,1.4,西北西,3,西,3.8,95.6,0,0,0,13
254,2020-03-09T04:13:00,1.7,西北西,3.9,西北西,3.9,95.6,0,0,0,13
255,2020-03-09T04:14:00,1.9,西,4.3,西北西,3.9,95.7,0,0,0,13
256,2020-03-09T04:15:00,2.1,西,4.3,西北西,3.9,95.8,0,0,0,13
257,2020-03-09T04:16:00,2.3,西北西,4.3,西北西,3.8,95.7,0,0,0,13
258,2020-03-09T04:17:00,2.5,西北西,4.3,西北西,3.9,95.6,0,0,0,13
259,2020-03-09T04:18:00,2.7,西北西,4.7,西北西,3.9,95.8,0,0,0,13
260,2020-03-09T04:19:00,2.9,西北西,5.1,西北西,4,95.8,0,0,0,13
261,2020-03-09T04:20:00,3.1,西北西,5.3,西北西,4,95.9,0,0,0,13
262,2020-03-09T04:21:00,3.2,西北西,5.3,西北西,4,96,0,0,0,13
263,2020-03-09T04:22:00,3.2,西北西,5.3,西北西,4,95.8,0,0,0,13
264,2020-03-09T04:23:00,3.1,西北西,5.3,西北西,4,95.9,0,0,0,13
265,2020-03-09T04:24:00,3,西北西,5.3,西北西,4,95.8,0,0,0,13
266,2020-03-09T04:25:00,2.8,西北西,5.3,西北西,4,95.8,0,0,0,13
267,2020-03-09T04:26:00,2.9,西,5.3,西北西,3.9,95.8,0,0,0,13
268,2020-03-09T04:27:00,2.9,西,5.3,西北西,3.8,95.7,0,0,0,13
269,2020-03-09T04:28:00,2.7,西,5.3,西北西,3.8,95.7,0,0,0,13
270,2020-03-09T04:29:00,2.4,西北西,5.3,西北西,3.6,95.6,0,0,0,13
271,2020-03-09T04:30:00,2.1,西北西,4.7,西北西,3.6,95.4,0,0,0,13
272,2020-03-09T04:31:00,1.9,西北西,3.9,西,3.4,95.2,0,0,0,13
273,2020-03-09T04:32:00,1.7,北西,3.6,西,3.5,95.2,0,0,0,13
274,2020-03-09T04:33:00,1.5,北西,3.6,西,3.5,95.4,0,0,0,13
275,2020-03-09T04:34:00,1.3,北西,3.6,西,3.6,95.6,0,0,0,13
276,2020-03-09T04:35:00,1.2,北北西,3.6,西,3.6,95.8,0,0,0,13
277,2020-03-09T04:36:00,1,北北西,3.5,西,3.5,95.8,0,0,0,13
278,2020-03-09T04:37:00,0.9,北北西,3.2,西北西,3.4,95.6,0,0,0,13
279,2020-03-09T04:38:00,0.8,北北西,1.9,西,3.3,95.4,0,0,0,13
280,2020-03-09T04:39:00,0.9,北北西,2.5,西北西,3.5,95.5,0,0,0,13
281,2020-03-09T04:40:00,1.1,北北西,2.8,北西,3.8,96,0,0,0,13
282,2020-03-09T04:41:00,1.2,北北西,2.8,北西,3.7,96.1,0,0,0,13
283,2020-03-09T04:42:00,1.3,北北西,3.8,北西,4,96.1,0,0,0,13
284,2020-03-09T04:43:00,1.5,北西,3.8,北西,4,96.4,0,0,0,13
285,2020-03-09T04:44:00,1.7,北西,3.8,北西,4.1,96.4,0,0,0,13
286,2020-03-09T04:45:00,1.8,北西,3.8,北西,4,96.3,0,0,0,13
287,2020-03-09T04:46:00,1.8,北西,3.8,北西,3.9,96.1,0,0,0,13
288,2020-03-09T04:47:00,1.8,北西,3.8,北西,3.8,95.9,0,0,0,13
289,2020-03-09T04:48:00,1.9,北西,3.8,北西,3.8,95.8,0,0,0,13
290,2020-03-09T04:49:00,1.8,北西,3.8,北西,3.7,95.8,0,0,0,13
291,2020-03-09T04:50:00,1.7,北西,3.8,北西,3.7,95.7,0,0,0,13
292,2020-03-09T04:51:00,1.5,北西,3.8,北西,3.6,95.7,0,0,0,13
293,2020-03-09T04:52:00,1.4,北西,3.3,西北西,3.6,95.7,0,0,0,13
294,2020-03-09T04:53:00,1.2,北西,2.7,西北西,3.4,95.6,0,0,0,13
295,2020-03-09T04:54:00,1.1,北西,2.5,北西,3.3,95.4,0,0,0,13
296,2020-03-09T04:55:00,0.9,北西,2.4,北西,3.3,95.4,0,0,0,13
297,2020-03-09T04:56:00,0.9,北西,2.4,北西,3.2,95.5,0,0,0,13
298,2020-03-09T04:57:00,0.9,北西,2.4,北西,3.7,95.7,0,0,0,13
299,2020-03-09T04:58:00,0.8,北西,2.3,北,4.2,96.5,0,0,0,13
300,2020-03-09T04:59:00,0.8,北西,2.1,北西,3.7,96.6,0,0,0,13
301,2020-03-09T05:00:00,0.9,北西,2.2,北西,3.7,96.2,0,0,0,13
302,2020-03-09T05:01:00,1,北西,2.4,西北西,3.6,96,0,0,0,13
303,2020-03-09T05:02:00,1.2,北西,3.1,西北西,3.9,96,0,0,0,13
304,2020-03-09T05:03:00,1.3,北西,3.1,西北西,3.9,96.3,0,0,0,13
305,2020-03-09T05:04:00,1.3,北西,3.1,西北西,3.9,96.2,0,0,0,13
306,2020-03-09T05:05:00,1.4,北西,3.1,西北西,4,96.2,0,0,0,13
307,2020-03-09T05:06:00,1.4,北西,3.1,西北西,4.1,96.3,0,0,0,13
308,2020-03-09T05:07:00,1.4,北西,3.1,西北西,4.2,96.4,0,0,0,13
309,2020-03-09T05:08:00,1.4,西北西,3.1,西北西,4.1,96.3,0,0,0,13
310,2020-03-09T05:09:00,1.3,西北西,3.1,西北西,4,96.1,0,0,0,13
311,2020-03-09T05:10:00,1.3,西北西,3.1,西北西,4,96,0,0,0,13
312,2020-03-09T05:11:00,1.3,西北西,3.1,西北西,4,96.1,0,0,0,13
313,2020-03-09T05:12:00,1.3,西北西,2.8,西,4,96.1,0,0,0,13
314,2020-03-09T05:13:00,1.3,西北西,3.4,西,4,96,0,0,0,13
315,2020-03-09T05:14:00,1.5,西北西,4.1,西,4,96,0,0,0,13
316,2020-03-09T05:15:00,1.6,西,4.1,西,4,96,0,0,0,13
317,2020-03-09T05:16:00,1.8,西,4.5,西北西,4,96,0,0,0,13
318,2020-03-09T05:17:00,2,西,4.5,西北西,4.1,96.1,0,0,0,13
319,2020-03-09T05:18:00,2.1,西,4.5,西北西,4.1,96.1,0,0,0,13
320,2020-03-09T05:19:00,2.3,西,4.5,西北西,4,96.1,0,0,0,13
321,2020-03-09T05:20:00,2.3,西北西,4.5,西北西,3.7,95.8,0,0,0,13
322,2020-03-09T05:21:00,2.3,西北西,4.5,西北西,3.5,95.3,0,0,0,13
323,2020-03-09T05:22:00,2.2,西北西,4.5,西北西,3.6,95.3,0,0,0,13
324,2020-03-09T05:23:00,2,西北西,4.5,西北西,3.5,95.4,0,0,0,13
325,2020-03-09T05:24:00,1.8,西北西,4.5,西北西,3.1,94.9,0,0,0,13
326,2020-03-09T05:25:00,1.7,北西,4.5,西北西,3.1,94.5,0,0,0,13
327,2020-03-09T05:26:00,1.5,北西,4,西北西,3.4,95.1,0,0,0,13
328,2020-03-09T05:27:00,1.4,北西,4,西北西,3.6,95.9,0,0,0,13
329,2020-03-09T05:28:00,1.3,北西,4,西北西,3.6,96,0,0,0,13
330,2020-03-09T05:29:00,1.1,北西,3.8,北西,3.6,96,0,0,0,13
331,2020-03-09T05:30:00,1.1,北西,3.5,西,3.2,95.6,0,0,0,13
332,2020-03-09T05:31:00,1,北北西,3.5,西,3.1,95.1,0,0,0,13
333,2020-03-09T05:32:00,1,北北西,3.5,西,2.9,94.8,0,0,0,13
334,2020-03-09T05:33:00,1,北,3.5,西,2.8,94.6,0,0,0,13
335,2020-03-09T05:34:00,1.1,北,3.5,西,3,95.1,0,0,0,13
336,2020-03-09T05:35:00,1.2,北,3.5,西,3.1,95.6,0,0,0,13
337,2020-03-09T05:36:00,1,北,2.2,西北西,2.9,95.6,0,0,0,13
338,2020-03-09T05:37:00,1,北,2.2,西北西,2.7,95.4,0,0,0,13
339,2020-03-09T05:38:00,0.9,北,1.9,西北西,2.5,95,0,0,0,13
340,2020-03-09T05:39:00,0.8,北,1.4,北北東,3.2,95.4,0,0,0,13
341,2020-03-09T05:40:00,0.7,北,1.4,北北東,3.1,96.1,0,0,0,13
342,2020-03-09T05:41:00,0.7,北,1.4,北北東,3,95.9,0,0,0,13
343,2020-03-09T05:42:00,0.7,北北西,2,西,3.5,96.1,0,0,0,13
344,2020-03-09T05:43:00,0.6,北北西,2,西,3.6,96.5,0,0,0,13
345,2020-03-09T05:44:00,0.6,北西,2,西,3.6,96.5,0,0,0,13
346,2020-03-09T05:45:00,0.6,北西,2,西,3.5,96.4,0,0,0,13
347,2020-03-09T05:46:00,0.7,北西,2,西,3.5,96.2,0,0,0,13
348,2020-03-09T05:47:00,0.8,西北西,2,西,3.6,96.3,0,0,0,13
349,2020-03-09T05:48:00,0.9,西北西,2,西,3.6,96.2,0,0,0,13
350,2020-03-09T05:49:00,1,西北西,2.1,西,3.7,96.3,0,0,0,13
351,2020-03-09T05:50:00,1.2,西北西,2.6,西,3.6,96.2,0,0,0,13
352,2020-03-09T05:51:00,1.4,西,3.1,西,3.6,96.2,0,0,0,13
353,2020-03-09T05:52:00,1.6,西,3.5,西,3.6,96.1,0,0,0,13
354,2020-03-09T05:53:00,1.7,西,3.5,西,3.6,96.1,0,0,0,13
355,2020-03-09T05:54:00,1.7,西,3.5,西,3.6,96.1,0,0,0,13
356,2020-03-09T05:55:00,1.8,西,3.5,西,3.6,96.1,0,0,0,13
357,2020-03-09T05:56:00,1.7,西,3.5,西,3.5,96.1,0,0,0,13
358,2020-03-09T05:57:00,1.7,西,3.5,西,3.4,96,0,0,0,13
359,2020-03-09T05:58:00,1.6,西北西,3.5,西,3.2,95.8,0,0,0,13
360,2020-03-09T05:59:00,1.5,西北西,3.5,西,3,95.6,0,0,0,13
361,2020-03-09T06:00:00,1.4,北西,3.5,西,2.9,95.4,0,0,0,13
362,2020-03-09T06:01:00,1.3,北西,3.5,西,2.8,95.4,0,0,0,13
363,2020-03-09T06:02:00,1,北北西,2.7,西,2.8,95.4,0,0,0,13
364,2020-03-09T06:03:00,0.9,北北西,2.5,西北西,2.8,95.5,0,0,0,13
365,2020-03-09T06:04:00,0.7,北,2,西北西,2.9,95.7,0,0,0,13
366,2020-03-09T06:05:00,0.6,北,1.8,西北西,2.8,95.8,0,0,0,13
367,2020-03-09T06:06:00,0.5,北,1.5,北北西,2.8,95.9,0,0,0,13
368,2020-03-09T06:07:00,0.5,北北東,1.5,北北西,2.8,95.9,0,0,0,13
369,2020-03-09T06:08:00,0.4,北北東,1.5,北北西,2.9,95.9,0,0,0,13
370,2020-03-09T06:09:00,0.3,北,1.5,北北西,3.1,96,0,0,0,13
371,2020-03-09T06:10:00,0.3,北,0.9,北,3.2,96.2,0,0,0,13
372,2020-03-09T06:11:00,0.2,静穏,0.7,北北東,3.3,96.4,0,0,0,13
373,2020-03-09T06:12:00,0.2,静穏,0.7,北北東,3.1,96.4,0,0,0,13
374,2020-03-09T06:13:00,0.2,静穏,1.5,西,3.1,96.1,0,0,0,13
375,2020-03-09T06:14:00,0.3,北西,1.7,西,3,96,0,0,0,13
376,2020-03-09T06:15:00,0.5,北西,3.4,西南西,3.2,96.1,0,0,0,13
377,2020-03-09T06:16:00,0.7,西北西,3.7,西,3.3,96.2,0,0,0,13
378,2020-03-09T06:17:00,0.9,西北西,3.7,西,3.3,96.3,0,0,0,13
379,2020-03-09T06:18:00,1.1,西,3.7,西,3.3,96.3,0,0,0,13
380,2020-03-09T06:19:00,1.3,西,3.7,西,3.4,96.3,0,0,0,13
381,2020-03-09T06:20:00,1.4,西,3.7,西,3.2,96.3,0,0,0,13
382,2020-03-09T06:21:00,1.4,西北西,3.7,西,3.1,96,0,0,0,13
383,2020-03-09T06:22:00,1.5,西北西,3.7,西,2.9,95.8,0,0,0,13
384,2020-03-09T06:23:00,1.5,北西,3.7,西,2.8,95.7,0,0,0,13
385,2020-03-09T06:24:00,1.5,北西,3.7,西,2.9,95.7,0,0,0,13
386,2020-03-09T06:25:00,1.3,北北西,3.7,西,2.7,95.8,0,0,0,13
387,2020-03-09T06:26:00,1.1,北,3.3,西,2.8,95.7,0,0,0,13
388,2020-03-09T06:27:00,0.9,東北東,2.6,西,3.1,96,0,0,0,13
389,2020-03-09T06:28:00,0.7,東,2.6,西,3,96.1,0,0,0,13
390,2020-03-09T06:29:00,0.6,東,2.4,西北西,2.9,96.1,0,0,0,13
391,2020-03-09T06:30:00,0.5,東,1.3,東,2.9,96,0,0,0,13
392,2020-03-09T06:31:00,0.4,東,1.3,東,2.9,96,0,0,0,13
393,2020-03-09T06:32:00,0.4,東南東,1.3,東,3,96.1,0,0,0,13
394,2020-03-09T06:33:00,0.3,東,1.3,東,2.9,96.1,0,0,0,13
395,2020-03-09T06:34:00,0.3,東,0.7,東北東,2.9,96.1,0,0,0,13
396,2020-03-09T06:35:00,0.3,東,0.7,東北東,2.8,96,0,0,0,13
397,2020-03-09T06:36:00,0.3,東北東,0.7,東北東,2.8,96,0,0,0,13
398,2020-03-09T06:37:00,0.2,静穏,0.7,東北東,2.8,96,0,0,0,13
399,2020-03-09T06:38:00,0.3,東,0.7,東北東,2.8,96,0,0,0,13
400,2020-03-09T06:39:00,0.2,静穏,0.7,東北東,2.5,95.9,0,0,0,13
401,2020-03-09T06:40:00,0.2,静穏,0.7,東北東,2.6,95.7,0,0,0,13
402,2020-03-09T06:41:00,0.2,静穏,0.7,東北東,2.9,96,0,0,0,13
403,2020-03-09T06:42:00,0.2,静穏,0.7,東北東,3,96.3,0,0,0,13
404,2020-03-09T06:43:00,0.2,静穏,0.4,東北東,2.7,96.3,0,0,0,13
405,2020-03-09T06:44:00,0.2,静穏,0.4,東北東,2.5,95.8,0,0,0,13
406,2020-03-09T06:45:00,0.1,静穏,0.4,東北東,2.5,95.7,0,0,0,13
407,2020-03-09T06:46:00,0.1,静穏,0.3,西北西,2.5,95.7,0,0,0,13
408,2020-03-09T06:47:00,0.1,静穏,0.3,西北西,2.5,95.8,0,0,0,13
409,2020-03-09T06:48:00,0.1,静穏,0.3,西北西,2.6,96,0,0,0,13
410,2020-03-09T06:49:00,0.1,静穏,0.3,西北西,2.6,96.1,0,0,0,13
411,2020-03-09T06:50:00,0.1,静穏,0.4,東北東,2.6,96.2,0,0,0,13
412,2020-03-09T06:51:00,0.1,静穏,0.5,東,2.6,96.1,0,0,0,13
413,2020-03-09T06:52:00,0.1,静穏,0.5,東,2.6,96.1,0,0,0,13
414,2020-03-09T06:53:00,0.1,静穏,0.5,東,2.6,96.1,0,0,0,13
415,2020-03-09T06:54:00,0.1,静穏,0.5,東,2.6,96.1,0,0,0,13
416,2020-03-09T06:55:00,0.1,静穏,0.5,東,2.5,96.1,0,0,0,13
417,2020-03-09T06:56:00,0.2,静穏,0.5,東,2.5,96.1,0,0,0,13
418,2020-03-09T06:57:00,0.2,静穏,0.5,東,2.5,96.1,0,0,0,13
419,2020-03-09T06:58:00,0.2,静穏,0.5,東,2.6,96.1,0,0,0,13
420,2020-03-09T06:59:00,0.2,静穏,0.5,東,2.6,96.2,0,0,0,13
421,2020-03-09T07:00:00,0.2,静穏,0.5,東,2.5,96.1,0,0,0,13
422,2020-03-09T07:01:00,0.2,静穏,0.5,北東,2.5,96.1,0,0,0,13
423,2020-03-09T07:02:00,0.2,静穏,0.5,北東,2.6,96.1,0,0,0,13
424,2020-03-09T07:03:00,0.2,静穏,0.5,北東,2.6,96.2,0,0,0,13
425,2020-03-09T07:04:00,0.2,静穏,0.5,北東,2.7,96.3,0,0,0,13
426,2020-03-09T07:05:00,0.2,静穏,0.5,北東,2.8,96.4,0,0,0,13
427,2020-03-09T07:06:00,0.2,静穏,0.5,北東,2.8,96.4,0,0,0,13
428,2020-03-09T07:07:00,0.2,静穏,0.4,西北西,2.7,96.4,0,0,0,13
429,2020-03-09T07:08:00,0.2,静穏,0.6,西,2.6,96.2,0,0,0,13
430,2020-03-09T07:09:00,0.2,静穏,0.6,西,2.6,96.2,0,0,0,13
431,2020-03-09T07:10:00,0.3,西北西,0.6,西,2.7,96.2,0,0,0,13
432,2020-03-09T07:11:00,0.3,西北西,0.6,西,2.7,96.2,0,0,0,13
433,2020-03-09T07:12:00,0.2,静穏,0.6,西,2.7,96.2,0,0,0,13